sat.trackr.live / text

‹ back to catalog

STARLINK-2414

NORAD 48095 · 2021-027D

PAYLOAD ACTIVE UNKNOWN

§ Identity

Operator
Country
US
Launch date
2021-04-07
Launch site
AFETR
Launch vehicle
Mass (kg)
RCS (m²)

Purposes: comms

External: N2YO · Heavens-Above · Gunter

§ Orbital elements

Epoch: 2026-09-04T00:58:08.071680Z

Period
94.01 min
Inclination
53.1588°
Eccentricity
0.0001186
Mean motion
15.31710515 rev/d
Perigee alt
469.9 km
Apogee alt
471.5 km
Semi-major
6,848.8 km
B*
1.1783e-4
RAAN
55.4738°
Arg perigee
93.3725°
Mean anomaly
266.7412°
Rev number
29,985

§ Raw data

STARLINK-24141 48095U 21027D   26247.04037120  .00003294  00000+0  11783-3 0  99962 48095  53.1588  55.4738 0001186  93.3725 266.7412 15.31710515299855

JSON: /api/v1/satellites/48095 · /tle

For live sub-satellite position, see the globe view (requires WebGL).

§ Visibility from observer

Set your observer location to see the next 7 days of passes ≥ 10°. The values pass through the URL so the page stays shareable.

No JS? Fill the form by hand. The geolocation button needs JavaScript.